Time,TemperatureF,DewpointF,PressureIn,WindDirection,WindDirectionDegrees,WindSpeedMPH,WindSpeedGustMPH,Humidity,HourlyPrecipIn,Conditions,Clouds,dailyrainin,SoftwareType,DateUTC
2013-06-24 00:01:00,78.8,77.0,30.06,ESE,112,3.4,3.6,93,0.00,,,0.00,Graphweather,2013-06-24 04:01:00,
2013-06-24 00:02:00,78.8,77.0,30.06,North,0,3.6,3.6,93,0.00,,,0.00,Graphweather,2013-06-24 04:02:00,
2013-06-24 00:04:00,78.8,77.0,30.06,ENE,67,2.9,5.8,93,0.00,,,0.00,Graphweather,2013-06-24 04:04:00,
2013-06-24 00:07:00,78.8,77.0,30.03,SE,135,3.8,6.0,93,0.00,,,0.00,Graphweather,2013-06-24 04:07:00,
2013-06-24 00:13:00,78.8,77.0,30.03,NE,45,3.1,3.4,93,0.00,,,0.00,Graphweather,2013-06-24 04:13:00,
2013-06-24 00:18:00,78.8,77.0,30.03,ESE,112,3.4,3.4,93,0.00,,,0.00,Graphweather,2013-06-24 04:18:00,
2013-06-24 00:23:00,78.8,77.0,30.06,SSW,202,4.0,4.0,93,0.00,,,0.00,Graphweather,2013-06-24 04:23:00,
2013-06-24 00:28:00,78.8,77.0,30.06,ESE,112,4.3,4.7,93,0.00,,,0.00,Graphweather,2013-06-24 04:28:00,
2013-06-24 00:33:00,78.8,77.0,30.06,SE,135,2.9,7.4,93,0.00,,,0.00,Graphweather,2013-06-24 04:33:00,
2013-06-24 00:38:00,78.8,77.0,30.03,East,90,3.1,5.4,93,0.00,,,0.00,Graphweather,2013-06-24 04:38:00,
2013-06-24 00:43:00,78.8,77.0,30.03,South,180,3.1,6.3,93,0.00,,,0.00,Graphweather,2013-06-24 04:43:00,
2013-06-24 00:48:00,78.8,77.0,30.03,ESE,112,2.9,4.0,92,0.00,,,0.00,Graphweather,2013-06-24 04:48:00,
2013-06-24 00:54:00,78.8,77.0,30.03,South,180,3.1,4.0,93,0.00,,,0.00,Graphweather,2013-06-24 04:54:00,
2013-06-24 00:59:00,78.8,77.0,30.03,WSW,247,3.1,3.4,92,0.00,,,0.00,Graphweather,2013-06-24 04:59:00,
2013-06-24 01:04:00,78.6,77.0,30.03,East,90,2.5,2.9,93,0.00,,,0.00,Graphweather,2013-06-24 05:04:00,
2013-06-24 01:09:00,78.8,77.0,30.03,SSE,157,2.7,4.7,93,0.00,,,0.00,Graphweather,2013-06-24 05:09:00,
2013-06-24 01:14:00,78.8,77.0,30.03,NNE,22,2.2,2.2,93,0.00,,,0.00,Graphweather,2013-06-24 05:14:00,
2013-06-24 01:19:00,79.0,77.0,30.03,North,0,4.7,7.2,93,0.00,,,0.00,Graphweather,2013-06-24 05:19:00,
2013-06-24 01:24:00,78.8,77.0,30.03,East,90,3.4,4.3,94,0.00,,,0.00,Graphweather,2013-06-24 05:24:00,
2013-06-24 01:29:00,78.8,77.0,30.03,ESE,112,4.0,4.0,93,0.00,,,0.00,Graphweather,2013-06-24 05:29:00,
2013-06-24 01:34:00,78.8,77.0,30.03,ESE,112,3.8,6.0,93,0.00,,,0.00,Graphweather,2013-06-24 05:34:00,
2013-06-24 01:39:00,78.8,77.0,30.03,SSE,157,3.8,5.6,93,0.00,,,0.00,Graphweather,2013-06-24 05:39:00,
2013-06-24 01:45:00,78.8,77.0,30.03,SE,135,3.8,3.8,93,0.00,,,0.00,Graphweather,2013-06-24 05:45:00,
2013-06-24 01:50:00,78.8,77.0,30.03,ESE,112,2.7,3.1,92,0.00,,,0.00,Graphweather,2013-06-24 05:50:00,
2013-06-24 01:55:00,78.8,77.0,30.00,ESE,112,4.3,4.3,93,0.00,,,0.00,Graphweather,2013-06-24 05:55:00,
2013-06-24 02:00:00,78.8,77.0,30.00,ESE,112,3.1,3.1,93,0.00,,,0.00,Graphweather,2013-06-24 06:00:00,
2013-06-24 02:05:00,78.8,77.0,30.00,East,90,4.5,6.0,92,0.00,,,0.00,Graphweather,2013-06-24 06:05:00,
2013-06-24 02:10:00,78.8,77.0,30.03,East,90,4.7,7.2,92,0.00,,,0.00,Graphweather,2013-06-24 06:10:00,
2013-06-24 02:16:00,78.8,77.0,30.03,ENE,67,4.0,4.0,92,0.00,,,0.00,Graphweather,2013-06-24 06:16:00,
2013-06-24 02:21:00,78.6,77.0,30.00,SSW,202,3.8,3.8,92,0.00,,,0.00,Graphweather,2013-06-24 06:21:00,
2013-06-24 02:26:00,78.6,77.0,30.00,ESE,112,2.7,3.8,91,0.00,,,0.00,Graphweather,2013-06-24 06:26:00,
2013-06-24 02:32:00,78.6,77.0,30.00,NNE,22,2.5,3.8,92,0.00,,,0.00,Graphweather,2013-06-24 06:32:00,
2013-06-24 02:37:00,78.6,77.0,30.00,ESE,112,3.6,4.0,92,0.00,,,0.00,Graphweather,2013-06-24 06:37:00,
2013-06-24 02:42:00,78.6,77.0,30.00,ESE,112,2.9,2.9,93,0.00,,,0.00,Graphweather,2013-06-24 06:42:00,
2013-06-24 02:48:00,78.4,77.0,30.00,NW,315,2.5,4.9,93,0.00,,,0.00,Graphweather,2013-06-24 06:48:00,
2013-06-24 02:53:00,78.4,77.0,30.03,East,90,2.7,5.8,93,0.00,,,0.00,Graphweather,2013-06-24 06:53:00,
2013-06-24 02:59:00,78.4,77.0,30.03,East,90,2.5,4.3,93,0.00,,,0.00,Graphweather,2013-06-24 06:59:00,
2013-06-24 03:05:00,78.4,77.0,30.03,ESE,112,2.0,3.8,93,0.00,,,0.00,Graphweather,2013-06-24 07:05:00,
2013-06-24 03:11:00,78.4,77.0,30.00,ESE,112,2.0,3.4,93,0.00,,,0.00,Graphweather,2013-06-24 07:11:00,
2013-06-24 03:16:00,78.4,77.0,30.00,ESE,112,3.1,3.6,93,0.00,,,0.00,Graphweather,2013-06-24 07:16:00,
2013-06-24 03:21:00,78.4,75.2,30.00,East,90,3.4,3.4,92,0.00,,,0.00,Graphweather,2013-06-24 07:21:00,
2013-06-24 03:27:00,78.4,77.0,30.00,NNE,22,3.8,3.8,93,0.00,,,0.00,Graphweather,2013-06-24 07:27:00,
2013-06-24 03:32:00,78.6,77.0,30.00,South,180,3.4,5.8,93,0.00,,,0.00,Graphweather,2013-06-24 07:32:00,
2013-06-24 03:38:00,78.6,77.0,30.00,ESE,112,2.9,3.8,92,0.00,,,0.00,Graphweather,2013-06-24 07:38:00,
2013-06-24 03:44:00,78.4,75.2,30.00,ESE,112,3.1,3.4,92,0.00,,,0.00,Graphweather,2013-06-24 07:44:00,
2013-06-24 03:49:00,78.4,77.0,30.00,East,90,4.5,4.5,93,0.00,,,0.00,Graphweather,2013-06-24 07:49:00,
2013-06-24 03:54:00,78.3,77.0,30.00,ESE,112,3.1,3.8,94,0.00,,,0.00,Graphweather,2013-06-24 07:54:00,
2013-06-24 03:59:00,78.3,77.0,30.00,SE,135,2.2,2.9,93,0.00,,,0.00,Graphweather,2013-06-24 07:59:00,
2013-06-24 04:04:00,78.4,77.0,30.00,ESE,112,4.7,4.7,93,0.00,,,0.00,Graphweather,2013-06-24 08:04:00,
2013-06-24 04:10:00,78.4,77.0,30.03,East,90,2.7,2.7,93,0.00,,,0.00,Graphweather,2013-06-24 08:10:00,
2013-06-24 04:15:00,78.4,77.0,30.03,ESE,112,2.7,4.0,93,0.00,,,0.00,Graphweather,2013-06-24 08:15:00,
2013-06-24 04:21:00,78.4,77.0,30.03,ESE,112,3.1,4.3,93,0.00,,,0.00,Graphweather,2013-06-24 08:21:00,
2013-06-24 04:26:00,78.4,77.0,30.03,East,90,2.9,4.5,93,0.00,,,0.00,Graphweather,2013-06-24 08:26:00,
2013-06-24 04:31:00,78.6,77.0,30.03,East,90,3.4,4.3,93,0.00,,,0.00,Graphweather,2013-06-24 08:31:00,
2013-06-24 04:36:00,78.6,77.0,30.03,ENE,67,2.0,3.6,94,0.00,,,0.00,Graphweather,2013-06-24 08:36:00,
2013-06-24 04:42:00,78.6,77.0,30.03,East,90,3.6,3.6,94,0.00,,,0.00,Graphweather,2013-06-24 08:42:00,
2013-06-24 04:47:00,78.4,77.0,30.03,East,90,2.9,3.1,94,0.00,,,0.00,Graphweather,2013-06-24 08:47:00,
2013-06-24 04:52:00,78.4,77.0,30.03,East,90,3.1,4.3,94,0.00,,,0.00,Graphweather,2013-06-24 08:52:00,
2013-06-24 04:57:00,78.4,77.0,30.03,South,180,3.1,3.6,95,0.00,,,0.00,Graphweather,2013-06-24 08:57:00,
2013-06-24 05:02:00,78.3,77.0,30.03,ESE,112,4.0,4.0,94,0.00,,,0.00,Graphweather,2013-06-24 09:02:00,
2013-06-24 05:08:00,78.4,77.0,30.03,ENE,67,2.5,5.6,94,0.00,,,0.00,Graphweather,2013-06-24 09:08:00,
2013-06-24 05:13:00,78.6,77.0,30.03,East,90,3.6,3.6,92,0.00,,,0.00,Graphweather,2013-06-24 09:13:00,
2013-06-24 05:20:00,78.6,77.0,30.03,SE,135,3.8,5.8,93,0.00,,,0.00,Graphweather,2013-06-24 09:20:00,
2013-06-24 05:25:00,78.6,77.0,30.03,East,90,3.4,3.8,92,0.00,,,0.00,Graphweather,2013-06-24 09:25:00,
2013-06-24 05:31:00,78.4,75.2,30.03,East,90,4.0,5.6,90,0.00,,,0.00,Graphweather,2013-06-24 09:31:00,
2013-06-24 05:36:00,77.5,75.2,30.03,East,90,3.1,3.4,92,0.00,,,0.00,Graphweather,2013-06-24 09:36:00,
2013-06-24 05:42:00,77.2,75.2,30.03,ESE,112,2.9,3.4,91,0.00,,,0.00,Graphweather,2013-06-24 09:42:00,
2013-06-24 05:48:00,77.4,75.2,30.03,East,90,4.0,4.0,89,0.00,,,0.00,Graphweather,2013-06-24 09:48:00,
2013-06-24 05:53:00,77.7,73.4,30.03,SSE,157,4.0,4.3,87,0.00,,,0.00,Graphweather,2013-06-24 09:53:00,
2013-06-24 05:58:00,78.1,73.4,30.03,SE,135,3.8,5.4,86,0.00,,,0.00,Graphweather,2013-06-24 09:58:00,
2013-06-24 06:04:00,78.4,75.2,30.03,East,90,3.6,5.6,87,0.00,,,0.00,Graphweather,2013-06-24 10:04:00,
2013-06-24 06:09:00,78.6,75.2,30.03,NNW,337,3.1,6.0,89,0.00,,,0.00,Graphweather,2013-06-24 10:09:00,
2013-06-24 06:15:00,78.4,75.2,30.03,East,90,3.1,4.0,89,0.00,,,0.00,Graphweather,2013-06-24 10:15:00,
2013-06-24 06:20:00,78.6,75.2,30.03,East,90,2.9,4.9,88,0.00,,,0.00,Graphweather,2013-06-24 10:20:00,
2013-06-24 06:26:00,79.0,75.2,30.03,East,90,2.9,4.9,88,0.00,,,0.00,Graphweather,2013-06-24 10:26:00,
2013-06-24 06:31:00,79.2,75.2,30.03,North,0,3.6,4.3,88,0.00,,,0.00,Graphweather,2013-06-24 10:31:00,
2013-06-24 06:37:00,79.5,77.0,30.03,East,90,2.9,3.6,89,0.00,,,0.00,Graphweather,2013-06-24 10:37:00,
2013-06-24 06:43:00,82.6,78.8,30.03,ESE,112,2.9,4.3,86,0.00,,,0.00,Graphweather,2013-06-24 10:43:00,
2013-06-24 06:48:00,81.5,78.8,30.03,SSW,202,2.9,4.3,87,0.00,,,0.00,Graphweather,2013-06-24 10:48:00,
2013-06-24 06:54:00,83.7,78.8,30.03,ESE,112,4.0,4.9,86,0.00,,,0.00,Graphweather,2013-06-24 10:54:00,
2013-06-24 06:59:00,84.9,78.8,30.03,ESE,112,3.8,3.8,83,0.00,,,0.00,Graphweather,2013-06-24 10:59:00,
2013-06-24 07:04:00,85.5,78.8,30.03,SSW,202,3.1,4.3,81,0.00,,,0.00,Graphweather,2013-06-24 11:04:00,
2013-06-24 07:10:00,84.0,78.8,30.03,ESE,112,2.7,3.8,84,0.00,,,0.00,Graphweather,2013-06-24 11:10:00,
2013-06-24 07:17:00,86.2,78.8,30.03,East,90,2.7,2.9,80,0.00,,,0.00,Graphweather,2013-06-24 11:17:00,
2013-06-24 07:22:00,85.5,78.8,30.03,East,90,3.1,3.1,79,0.00,,,0.00,Graphweather,2013-06-24 11:22:00,
2013-06-24 07:28:00,84.0,78.8,30.03,East,90,3.1,3.1,81,0.00,,,0.00,Graphweather,2013-06-24 11:28:00,
2013-06-24 07:34:00,82.4,77.0,30.03,SSW,202,3.6,4.0,83,0.00,,,0.00,Graphweather,2013-06-24 11:34:00,
2013-06-24 07:39:00,82.6,77.0,30.06,East,90,2.7,4.9,84,0.00,,,0.00,Graphweather,2013-06-24 11:39:00,
2013-06-24 07:44:00,82.8,77.0,30.06,East,90,4.0,4.0,83,0.00,,,0.00,Graphweather,2013-06-24 11:44:00,
2013-06-24 07:49:00,83.7,77.0,30.06,East,90,3.8,3.8,80,0.00,,,0.00,Graphweather,2013-06-24 11:49:00,
2013-06-24 07:55:00,87.1,78.8,30.06,SSE,157,3.4,3.6,76,0.00,,,0.00,Graphweather,2013-06-24 11:55:00,
2013-06-24 08:00:00,88.0,78.8,30.06,East,90,3.4,4.9,72,0.00,,,0.00,Graphweather,2013-06-24 12:00:00,
2013-06-24 08:06:00,88.0,77.0,30.06,SSW,202,3.4,4.9,70,0.00,,,0.00,Graphweather,2013-06-24 12:06:00,
2013-06-24 08:11:00,88.7,77.0,30.06,East,90,4.7,4.9,67,0.00,,,0.00,Graphweather,2013-06-24 12:11:00,
2013-06-24 08:17:00,88.7,77.0,30.06,East,90,3.4,6.3,67,0.00,,,0.00,Graphweather,2013-06-24 12:17:00,
2013-06-24 08:22:00,89.6,77.0,30.06,East,90,3.1,3.1,67,0.00,,,0.00,Graphweather,2013-06-24 12:22:00,
2013-06-24 08:28:00,90.1,77.0,30.06,ESE,112,3.8,5.4,66,0.00,,,0.00,Graphweather,2013-06-24 12:28:00,
2013-06-24 08:33:00,90.0,77.0,30.06,East,90,4.7,5.6,66,0.00,,,0.00,Graphweather,2013-06-24 12:33:00,
2013-06-24 08:39:00,90.7,78.8,30.06,East,90,4.0,4.0,66,0.00,,,0.00,Graphweather,2013-06-24 12:39:00,
2013-06-24 08:45:00,91.2,78.8,30.06,ESE,112,4.0,6.0,66,0.00,,,0.00,Graphweather,2013-06-24 12:45:00,
2013-06-24 08:50:00,91.2,78.8,30.06,ESE,112,4.3,4.3,66,0.00,,,0.00,Graphweather,2013-06-24 12:50:00,
2013-06-24 08:55:00,91.2,78.8,30.09,SSW,202,4.0,5.6,65,0.00,,,0.00,Graphweather,2013-06-24 12:55:00,
2013-06-24 09:00:00,90.0,77.0,30.09,ENE,67,4.5,4.5,66,0.00,,,0.00,Graphweather,2013-06-24 13:00:00,
2013-06-24 09:06:00,91.0,78.8,30.03,East,90,3.8,4.0,65,0.00,,,0.00,Graphweather,2013-06-24 13:06:00,
2013-06-24 09:12:00,92.3,78.8,30.03,ESE,112,2.7,3.6,65,0.00,,,0.00,Graphweather,2013-06-24 13:12:00,
2013-06-24 09:18:00,92.3,78.8,30.03,East,90,3.4,3.6,63,0.00,,,0.00,Graphweather,2013-06-24 13:18:00,
2013-06-24 09:23:00,92.8,78.8,30.06,East,90,3.1,3.4,63,0.00,,,0.00,Graphweather,2013-06-24 13:23:00,
2013-06-24 09:28:00,92.3,78.8,30.06,East,90,3.8,3.8,63,0.00,,,0.00,Graphweather,2013-06-24 13:28:00,
2013-06-24 09:34:00,93.4,78.8,30.06,East,90,3.1,3.6,62,0.00,,,0.00,Graphweather,2013-06-24 13:34:00,
2013-06-24 09:39:00,92.3,78.8,30.06,East,90,4.0,5.4,63,0.00,,,0.00,Graphweather,2013-06-24 13:39:00,
2013-06-24 09:45:00,92.3,78.8,30.06,East,90,2.9,3.1,63,0.00,,,0.00,Graphweather,2013-06-24 13:45:00,
2013-06-24 09:50:00,92.5,77.0,30.03,East,90,4.9,5.4,62,0.00,,,0.00,Graphweather,2013-06-24 13:50:00,
2013-06-24 09:55:00,92.7,77.0,30.03,East,90,3.6,3.6,60,0.00,,,0.00,Graphweather,2013-06-24 13:55:00,
2013-06-24 10:01:00,91.9,77.0,30.03,SE,135,3.8,5.6,61,0.00,,,0.00,Graphweather,2013-06-24 14:01:00,
2013-06-24 10:07:00,92.1,77.0,30.03,ESE,112,3.6,3.8,62,0.00,,,0.00,Graphweather,2013-06-24 14:07:00,
2013-06-24 10:12:00,92.1,77.0,30.03,ESE,112,4.3,4.9,62,0.00,,,0.00,Graphweather,2013-06-24 14:12:00,
2013-06-24 10:18:00,92.3,78.8,30.03,East,90,3.4,4.3,63,0.00,,,0.00,Graphweather,2013-06-24 14:18:00,
2013-06-24 10:23:00,92.3,78.8,30.06,NE,45,3.6,4.9,63,0.00,,,0.00,Graphweather,2013-06-24 14:23:00,
2013-06-24 10:29:00,92.3,78.8,30.06,ESE,112,3.4,3.4,63,0.00,,,0.00,Graphweather,2013-06-24 14:29:00,
2013-06-24 10:34:00,92.8,78.8,30.06,ESE,112,3.4,4.0,64,0.00,,,0.00,Graphweather,2013-06-24 14:34:00,
2013-06-24 10:40:00,91.9,78.8,30.03,East,90,3.8,4.5,64,0.00,,,0.00,Graphweather,2013-06-24 14:40:00,
2013-06-24 10:45:00,91.4,78.8,30.03,East,90,2.7,3.8,65,0.00,,,0.00,Graphweather,2013-06-24 14:45:00,
2013-06-24 10:51:00,91.2,78.8,30.06,East,90,3.4,5.4,65,0.00,,,0.00,Graphweather,2013-06-24 14:51:00,
2013-06-24 10:56:00,92.8,78.8,30.06,ESE,112,4.3,5.6,64,0.00,,,0.00,Graphweather,2013-06-24 14:56:00,
2013-06-24 11:01:00,93.0,77.0,30.06,East,90,3.6,4.0,62,0.00,,,0.00,Graphweather,2013-06-24 15:01:00,
2013-06-24 11:07:00,92.3,77.0,30.06,East,90,3.8,4.3,62,0.00,,,0.00,Graphweather,2013-06-24 15:07:00,
2013-06-24 11:12:00,93.2,78.8,30.06,SSW,202,3.1,5.4,64,0.00,,,0.00,Graphweather,2013-06-24 15:12:00,
2013-06-24 11:18:00,93.6,78.8,30.06,East,90,4.0,4.0,63,0.00,,,0.00,Graphweather,2013-06-24 15:18:00,
2013-06-24 11:24:00,93.9,77.0,30.06,ESE,112,3.4,4.9,59,0.00,,,0.00,Graphweather,2013-06-24 15:24:00,
2013-06-24 11:29:00,94.3,78.8,30.06,East,90,2.5,4.3,59,0.00,,,0.00,Graphweather,2013-06-24 15:29:00,
2013-06-24 11:35:00,94.5,78.8,30.06,East,90,2.9,2.9,59,0.00,,,0.00,Graphweather,2013-06-24 15:35:00,
2013-06-24 11:40:00,95.0,78.8,30.06,ESE,112,2.9,3.8,58,0.00,,,0.00,Graphweather,2013-06-24 15:40:00,
2013-06-24 11:46:00,95.2,77.0,30.06,East,90,3.1,4.9,56,0.00,,,0.00,Graphweather,2013-06-24 15:46:00,
2013-06-24 11:51:00,95.2,77.0,30.06,SE,135,2.9,4.0,56,0.00,,,0.00,Graphweather,2013-06-24 15:51:00,
2013-06-24 11:56:00,95.7,77.0,30.06,SE,135,3.4,5.4,55,0.00,,,0.00,Graphweather,2013-06-24 15:56:00,
2013-06-24 12:02:00,95.4,77.0,30.06,East,90,2.9,4.9,56,0.00,,,0.00,Graphweather,2013-06-24 16:02:00,
2013-06-24 12:07:00,95.4,78.8,30.03,East,90,2.7,4.0,58,0.00,,,0.00,Graphweather,2013-06-24 16:07:00,
2013-06-24 12:13:00,95.2,77.0,30.03,East,90,3.1,4.0,57,0.00,,,0.00,Graphweather,2013-06-24 16:13:00,
2013-06-24 12:18:00,93.6,77.0,30.03,SE,135,3.8,4.9,58,0.00,,,0.00,Graphweather,2013-06-24 16:18:00,
2013-06-24 12:24:00,93.7,77.0,30.06,NE,45,3.6,7.6,58,0.00,,,0.00,Graphweather,2013-06-24 16:24:00,
2013-06-24 12:30:00,93.2,77.0,30.06,ESE,112,3.1,7.2,60,0.00,,,0.00,Graphweather,2013-06-24 16:30:00,
2013-06-24 12:35:00,93.2,77.0,30.06,North,0,4.5,7.8,60,0.00,,,0.00,Graphweather,2013-06-24 16:35:00,
2013-06-24 12:40:00,92.8,77.0,30.03,ENE,67,4.7,4.7,60,0.00,,,0.00,Graphweather,2013-06-24 16:40:00,
2013-06-24 12:45:00,92.5,77.0,30.03,ESE,112,3.8,6.5,61,0.00,,,0.00,Graphweather,2013-06-24 16:45:00,
2013-06-24 12:50:00,92.5,77.0,30.06,ENE,67,3.4,4.9,61,0.00,,,0.00,Graphweather,2013-06-24 16:50:00,
2013-06-24 12:56:00,92.5,77.0,30.06,ENE,67,3.1,3.8,61,0.00,,,0.00,Graphweather,2013-06-24 16:56:00,
2013-06-24 13:01:00,91.8,77.0,30.06,NE,45,4.0,6.3,63,0.00,,,0.00,Graphweather,2013-06-24 17:01:00,
2013-06-24 13:07:00,91.9,77.0,30.06,South,180,4.9,4.9,62,0.00,,,0.00,Graphweather,2013-06-24 17:07:00,
2013-06-24 13:13:00,92.7,77.0,30.06,South,180,3.6,6.5,61,0.00,,,0.00,Graphweather,2013-06-24 17:13:00,
2013-06-24 13:18:00,92.5,77.0,30.06,East,90,4.9,4.9,62,0.00,,,0.00,Graphweather,2013-06-24 17:18:00,
2013-06-24 13:24:00,91.9,77.0,30.06,ENE,67,4.9,10.5,62,0.00,,,0.00,Graphweather,2013-06-24 17:24:00,
2013-06-24 13:30:00,91.4,77.0,30.06,East,90,3.4,6.0,62,0.00,,,0.00,Graphweather,2013-06-24 17:30:00,
2013-06-24 13:35:00,92.5,77.0,30.06,East,90,2.7,4.7,62,0.00,,,0.00,Graphweather,2013-06-24 17:35:00,
2013-06-24 13:41:00,91.9,77.0,30.06,SSE,157,3.1,6.0,63,0.00,,,0.00,Graphweather,2013-06-24 17:41:00,
2013-06-24 13:55:00,91.9,77.0,30.03,East,90,3.4,7.4,62,0.00,,,0.00,Graphweather,2013-06-24 17:55:00,
2013-06-24 14:00:00,91.9,77.0,30.03,East,90,3.8,5.4,61,0.00,,,0.00,Graphweather,2013-06-24 18:00:00,
2013-06-24 14:05:00,91.8,77.0,30.03,South,180,3.4,6.5,61,0.00,,,0.00,Graphweather,2013-06-24 18:05:00,
2013-06-24 14:11:00,91.6,77.0,30.03,NE,45,4.9,5.6,61,0.00,,,0.00,Graphweather,2013-06-24 18:11:00,
2013-06-24 14:26:00,91.6,77.0,30.03,ENE,67,3.8,3.8,62,0.00,,,0.00,Graphweather,2013-06-24 18:26:00,
2013-06-24 14:32:00,91.6,77.0,30.03,East,90,2.7,5.4,61,0.00,,,0.00,Graphweather,2013-06-24 18:32:00,
2013-06-24 14:37:00,91.2,77.0,30.03,ENE,67,2.7,3.8,63,0.00,,,0.00,Graphweather,2013-06-24 18:37:00,
2013-06-24 14:42:00,91.6,77.0,30.03,ESE,112,2.7,6.3,62,0.00,,,0.00,Graphweather,2013-06-24 18:42:00,
2013-06-24 14:47:00,90.9,77.0,30.03,SSE,157,2.5,4.0,63,0.00,,,0.00,Graphweather,2013-06-24 18:47:00,
2013-06-24 14:53:00,90.9,77.0,30.03,East,90,3.4,3.4,63,0.00,,,0.00,Graphweather,2013-06-24 18:53:00,
2013-06-24 14:58:00,90.9,77.0,30.03,SSE,157,2.7,5.6,63,0.00,,,0.00,Graphweather,2013-06-24 18:58:00,
2013-06-24 15:03:00,90.7,77.0,30.03,SE,135,4.9,5.8,63,0.00,,,0.00,Graphweather,2013-06-24 19:03:00,
2013-06-24 15:09:00,90.1,77.0,30.03,SSW,202,3.8,4.3,64,0.00,,,0.00,Graphweather,2013-06-24 19:09:00,
2013-06-24 15:14:00,90.1,77.0,30.03,SE,135,3.1,9.6,65,0.00,,,0.00,Graphweather,2013-06-24 19:14:00,
2013-06-24 15:20:00,89.8,77.0,30.03,NE,45,3.6,5.6,65,0.00,,,0.00,Graphweather,2013-06-24 19:20:00,
2013-06-24 15:25:00,89.8,77.0,30.03,ESE,112,3.4,4.9,66,0.00,,,0.00,Graphweather,2013-06-24 19:25:00,
2013-06-24 15:30:00,89.8,77.0,30.03,East,90,4.3,6.5,65,0.00,,,0.00,Graphweather,2013-06-24 19:30:00,
2013-06-24 15:36:00,89.2,77.0,30.03,East,90,4.3,6.0,68,0.00,,,0.00,Graphweather,2013-06-24 19:36:00,
2013-06-24 15:42:00,89.2,77.0,30.03,East,90,3.1,3.1,68,0.00,,,0.00,Graphweather,2013-06-24 19:42:00,
2013-06-24 15:47:00,88.3,77.0,30.03,SSE,157,4.3,9.6,68,0.00,,,0.00,Graphweather,2013-06-24 19:47:00,
2013-06-24 15:52:00,88.3,77.0,30.03,ESE,112,3.4,7.6,67,0.00,,,0.00,Graphweather,2013-06-24 19:52:00,
2013-06-24 15:58:00,87.4,77.0,30.03,East,90,2.9,4.3,71,0.00,,,0.00,Graphweather,2013-06-24 19:58:00,
2013-06-24 16:04:00,87.4,77.0,30.03,East,90,2.7,4.0,72,0.00,,,0.00,Graphweather,2013-06-24 20:04:00,
2013-06-24 16:09:00,87.6,77.0,30.03,East,90,3.6,5.4,70,0.00,,,0.00,Graphweather,2013-06-24 20:09:00,
2013-06-24 16:14:00,87.6,77.0,30.03,NNW,337,4.7,6.5,70,0.00,,,0.00,Graphweather,2013-06-24 20:14:00,
2013-06-24 16:25:00,86.0,77.0,30.03,SE,135,3.8,3.8,75,0.00,,,0.00,Graphweather,2013-06-24 20:25:00,
2013-06-24 16:31:00,85.1,77.0,30.03,East,90,4.5,4.5,76,0.00,,,0.00,Graphweather,2013-06-24 20:31:00,
2013-06-24 16:36:00,84.9,77.0,30.00,East,90,2.9,4.3,76,0.00,,,0.00,Graphweather,2013-06-24 20:36:00,
2013-06-24 16:41:00,84.4,77.0,30.00,East,90,3.8,4.7,79,0.00,,,0.00,Graphweather,2013-06-24 20:41:00,
2013-06-24 16:47:00,84.0,78.8,30.00,East,90,3.1,4.7,80,0.00,,,0.00,Graphweather,2013-06-24 20:47:00,
2013-06-24 16:52:00,83.5,77.0,30.03,East,90,3.6,3.6,80,0.00,,,0.00,Graphweather,2013-06-24 20:52:00,
2013-06-24 16:58:00,83.7,77.0,30.03,ESE,112,3.6,4.3,80,0.00,,,0.00,Graphweather,2013-06-24 20:58:00,
2013-06-24 17:03:00,83.3,78.8,30.03,NNE,22,3.4,3.6,82,0.00,,,0.00,Graphweather,2013-06-24 21:03:00,
2013-06-24 17:09:00,82.8,78.8,30.03,ENE,67,4.0,7.4,84,0.00,,,0.00,Graphweather,2013-06-24 21:09:00,
2013-06-24 17:14:00,82.6,77.0,30.03,East,90,4.3,4.3,84,0.00,,,0.00,Graphweather,2013-06-24 21:14:00,
2013-06-24 17:19:00,82.4,77.0,30.03,East,90,4.0,4.0,83,0.00,,,0.00,Graphweather,2013-06-24 21:19:00,
2013-06-24 17:25:00,82.2,77.0,30.03,NE,45,2.5,4.7,84,0.00,,,0.00,Graphweather,2013-06-24 21:25:00,
2013-06-24 17:40:00,81.5,77.0,30.03,East,90,3.1,3.1,86,0.00,,,0.00,Graphweather,2013-06-24 21:40:00,
2013-06-24 17:46:00,81.1,77.0,30.03,ESE,112,3.1,4.7,87,0.00,,,0.00,Graphweather,2013-06-24 21:46:00,
2013-06-24 17:51:00,81.1,77.0,30.03,ESE,112,3.6,3.6,87,0.00,,,0.00,Graphweather,2013-06-24 21:51:00,
2013-06-24 17:56:00,80.8,77.0,30.03,SSE,157,2.9,3.6,86,0.00,,,0.00,Graphweather,2013-06-24 21:56:00,
2013-06-24 18:02:00,80.8,77.0,30.03,ESE,112,3.4,4.9,86,0.00,,,0.00,Graphweather,2013-06-24 22:02:00,
2013-06-24 18:08:00,80.6,77.0,30.03,East,90,3.1,4.9,86,0.00,,,0.00,Graphweather,2013-06-24 22:08:00,
2013-06-24 18:13:00,80.6,77.0,30.03,ENE,67,3.1,4.0,88,0.00,,,0.00,Graphweather,2013-06-24 22:13:00,
2013-06-24 18:19:00,80.4,77.0,30.03,East,90,2.5,3.6,88,0.00,,,0.00,Graphweather,2013-06-24 22:19:00,
2013-06-24 18:25:00,80.2,77.0,30.03,SSE,157,3.1,4.7,89,0.00,,,0.00,Graphweather,2013-06-24 22:25:00,
2013-06-24 18:30:00,80.1,77.0,30.03,North,0,2.7,2.7,88,0.00,,,0.00,Graphweather,2013-06-24 22:30:00,
2013-06-24 18:35:00,80.1,77.0,30.03,SSE,157,4.0,4.3,89,0.00,,,0.00,Graphweather,2013-06-24 22:35:00,
2013-06-24 18:41:00,80.1,77.0,30.03,ENE,67,3.1,4.7,89,0.00,,,0.00,Graphweather,2013-06-24 22:41:00,
2013-06-24 18:47:00,79.9,77.0,30.03,ENE,67,3.1,3.8,89,0.00,,,0.00,Graphweather,2013-06-24 22:47:00,
2013-06-24 18:53:00,79.9,77.0,30.03,SW,225,3.8,4.7,89,0.00,,,0.00,Graphweather,2013-06-24 22:53:00,
2013-06-24 18:59:00,79.9,77.0,30.03,ENE,67,4.0,6.0,89,0.00,,,0.00,Graphweather,2013-06-24 22:59:00,
2013-06-24 19:05:00,79.9,77.0,30.03,East,90,2.9,3.8,90,0.00,,,0.00,Graphweather,2013-06-24 23:05:00,
2013-06-24 19:10:00,79.9,77.0,30.06,NNW,337,3.1,5.4,90,0.00,,,0.00,Graphweather,2013-06-24 23:10:00,
2013-06-24 19:15:00,79.9,77.0,30.06,East,90,3.4,3.8,89,0.00,,,0.00,Graphweather,2013-06-24 23:15:00,
2013-06-24 19:24:00,79.9,77.0,30.06,North,0,3.4,4.0,89,0.00,,,0.00,Graphweather,2013-06-24 23:24:00,
2013-06-24 19:34:00,79.7,77.0,30.06,ENE,67,2.9,2.9,90,0.00,,,0.00,Graphweather,2013-06-24 23:34:00,
2013-06-24 19:40:00,79.9,77.0,30.06,SE,135,2.7,3.6,91,0.00,,,0.00,Graphweather,2013-06-24 23:40:00,
2013-06-24 19:46:00,79.5,77.0,30.06,ESE,112,2.9,4.0,91,0.00,,,0.00,Graphweather,2013-06-24 23:46:00,
2013-06-24 19:51:00,79.5,77.0,30.06,ESE,112,3.6,6.9,91,0.00,,,0.00,Graphweather,2013-06-24 23:51:00,
2013-06-24 19:56:00,79.5,77.0,30.06,ENE,67,3.4,7.8,91,0.00,,,0.00,Graphweather,2013-06-24 23:56:00,
2013-06-24 20:09:00,79.7,77.0,30.06,ESE,112,3.1,3.1,90,0.00,,,0.00,Graphweather,2013-06-25 00:09:00,
2013-06-24 20:14:00,79.7,77.0,30.06,East,90,3.4,4.5,90,0.00,,,0.00,Graphweather,2013-06-25 00:14:00,
2013-06-24 20:24:00,79.5,77.0,30.06,ESE,112,3.4,4.9,91,0.00,,,0.00,Graphweather,2013-06-25 00:24:00,
2013-06-24 20:34:00,79.5,77.0,30.06,ESE,112,3.4,3.8,91,0.00,,,0.00,Graphweather,2013-06-25 00:34:00,
2013-06-24 20:40:00,79.3,77.0,30.06,NE,45,3.6,4.0,91,0.00,,,0.00,Graphweather,2013-06-25 00:40:00,
2013-06-24 20:45:00,79.3,77.0,30.06,SE,135,3.4,6.0,90,0.00,,,0.00,Graphweather,2013-06-25 00:45:00,
2013-06-24 20:50:00,79.2,77.0,30.06,East,90,3.4,3.6,90,0.00,,,0.00,Graphweather,2013-06-25 00:50:00,
2013-06-24 20:55:00,79.2,77.0,30.06,ESE,112,4.9,7.6,90,0.00,,,0.00,Graphweather,2013-06-25 00:55:00,
2013-06-24 21:00:00,79.2,77.0,30.06,ENE,67,1.6,3.6,91,0.00,,,0.00,Graphweather,2013-06-25 01:00:00,
2013-06-24 21:06:00,79.2,77.0,30.06,East,90,2.9,6.0,91,0.00,,,0.00,Graphweather,2013-06-25 01:06:00,
2013-06-24 21:11:00,79.2,77.0,30.06,East,90,3.6,3.6,91,0.00,,,0.00,Graphweather,2013-06-25 01:11:00,
2013-06-24 21:24:00,79.3,77.0,30.06,East,90,2.9,3.1,91,0.00,,,0.00,Graphweather,2013-06-25 01:24:00,
2013-06-24 21:35:00,79.3,77.0,30.06,SSW,202,3.1,5.4,91,0.00,,,0.00,Graphweather,2013-06-25 01:35:00,
2013-06-24 21:40:00,79.3,77.0,30.06,South,180,2.9,7.4,90,0.00,,,0.00,Graphweather,2013-06-25 01:40:00,
2013-06-24 21:45:00,79.3,77.0,30.06,SSE,157,2.9,4.9,92,0.00,,,0.00,Graphweather,2013-06-25 01:45:00,
2013-06-24 21:51:00,79.3,77.0,30.06,East,90,3.8,3.8,90,0.00,,,0.00,Graphweather,2013-06-25 01:51:00,
2013-06-24 21:56:00,79.2,77.0,30.06,SSE,157,2.9,4.7,91,0.00,,,0.00,Graphweather,2013-06-25 01:56:00,
2013-06-24 22:09:00,79.2,77.0,30.06,ENE,67,3.6,4.5,90,0.00,,,0.00,Graphweather,2013-06-25 02:09:00,
2013-06-24 22:19:00,79.0,75.2,30.06,SSE,157,3.6,4.7,90,0.00,,,0.00,Graphweather,2013-06-25 02:19:00,
2013-06-24 22:29:00,79.0,75.2,30.03,WNW,292,4.0,5.4,90,0.00,,,0.00,Graphweather,2013-06-25 02:29:00,
2013-06-24 22:35:00,79.0,77.0,30.03,NE,45,3.4,6.0,91,0.00,,,0.00,Graphweather,2013-06-25 02:35:00,
2013-06-24 22:41:00,79.0,77.0,30.06,WNW,292,3.6,4.3,92,0.00,,,0.00,Graphweather,2013-06-25 02:41:00,
2013-06-24 22:46:00,78.8,77.0,30.06,ESE,112,2.7,3.6,92,0.00,,,0.00,Graphweather,2013-06-25 02:46:00,
2013-06-24 22:51:00,78.8,77.0,30.06,East,90,2.9,5.6,92,0.00,,,0.00,Graphweather,2013-06-25 02:51:00,
2013-06-24 22:57:00,78.8,77.0,30.06,South,180,3.4,5.4,93,0.00,,,0.00,Graphweather,2013-06-25 02:57:00,
2013-06-24 23:03:00,78.8,77.0,30.06,NNW,337,2.9,5.4,92,0.00,,,0.00,Graphweather,2013-06-25 03:03:00,
2013-06-24 23:08:00,78.8,77.0,30.06,NE,45,3.8,3.8,92,0.00,,,0.00,Graphweather,2013-06-25 03:08:00,
2013-06-24 23:14:00,78.8,77.0,30.06,ESE,112,2.9,3.6,93,0.00,,,0.00,Graphweather,2013-06-25 03:14:00,
2013-06-24 23:19:00,78.8,77.0,30.06,East,90,2.2,2.5,93,0.00,,,0.00,Graphweather,2013-06-25 03:19:00,
2013-06-24 23:25:00,79.0,77.0,30.06,East,90,2.7,3.1,93,0.00,,,0.00,Graphweather,2013-06-25 03:25:00,
2013-06-24 23:30:00,79.0,77.0,30.06,ESE,112,3.6,3.6,93,0.00,,,0.00,Graphweather,2013-06-25 03:30:00,
2013-06-24 23:42:00,78.8,77.0,30.06,ESE,112,2.9,3.4,93,0.00,,,0.00,Graphweather,2013-06-25 03:42:00,
2013-06-24 23:47:00,78.8,77.0,30.06,East,90,3.8,3.8,92,0.00,,,0.00,Graphweather,2013-06-25 03:47:00,
2013-06-24 23:52:00,78.8,77.0,30.06,NNE,22,2.9,3.6,92,0.00,,,0.00,Graphweather,2013-06-25 03:52:00,
2013-06-24 23:59:00,78.8,77.0,30.06,East,90,3.1,3.8,91,0.00,,,0.00,Graphweather,2013-06-25 03:59:00,